{"data":{"norad_id":27811,"intl_designator":"2003-020A","name":"HELLAS-SAT 2","alt_names":[],"object_type":"PAYLOAD","status":"ACTIVE","operator":null,"country":"GREC","launch_date":"2003-05-13","launch_site_code":"AFETR","launch_vehicle":null,"mission":null,"orbit_class":"UNKNOWN","rcs_meters":15.8489,"size_class":null,"mass_kg":null,"dimensions":null,"purposes":["comms"],"wikipedia_slug":null,"has_3d_model":false,"image_url":null,"decayed_at":null,"tle_current":{"epoch":"2026-09-19T06:39:34.585632Z","epoch_age_seconds":120153,"freshness":"FRESH","line1":"1 27811U 03020A   26262.27748363 -.00000086  00000+0  00000+0 0  9995","line2":"2 27811   7.5821  66.7203 0007848 141.2434 240.1702  1.00272908 43792","mean_motion":1.00272908,"eccentricity":0.0007848,"inclination_deg":7.5821,"raan_deg":66.7203,"arg_perigee_deg":141.2434,"mean_anomaly_deg":240.1702,"bstar":0,"rev_number":4379,"period_min":1436.0808205542,"perigee_km":35753.189511886,"apogee_km":35819.370781039,"semimajor_km":42164.417146463,"source":"CELESTRAK","updated_at":"2026-09-20T09:00:35.121635Z"}}}